Weather History for Lyndonville, VT

Change the Weather History Date:

Friday, January 17, 2014

  Actual Average (K1V4) Record (K1V4)
Temperature  
Mean Temperature 28 °F 16 °F  
Max Temperature 33 °F 27 °F 58 °F (1995)
Min Temperature 23 °F 6 °F -32 °F (1907)
Degree Days  
Heating Degree Days 36 49  
Month to date heating degree days 816  
Since 1 July heating degree days 3769  
Moisture  
Dew Point 24 °F    
Average Humidity 81    
Maximum Humidity 92    
Minimum Humidity 65    
Precipitation  
Precipitation 0.00 in 0.08 in 0.71 in (1909)
Month to date precipitation 1.36  
Year to date precipitation 1.36  
Sea Level Pressure  
Sea Level Pressure 29.86 in    
Wind  
Wind Speed 2 mph (South)    
Max Wind Speed 10 mph    
Max Gust Speed -    
Visibility 7 miles    
Events Fog , Snow    
T = Trace of Precipitation, MM = Missing Value Source: NWS Daily Summary

Daily Weather History Graph

Daily Weather History Graph

Search for Another Location

Airport:

Trip Planner

Search our weather history database for the weather conditions in past years. The results will help you decide how hot, cold, wet, or windy it might be!

Date:

Astronomy

Jan. 17, 2014 Rise Set
Actual Time 7:20 AM EST 4:36 PM EST
Civil Twilight 6:47 AM EST 5:08 PM EST
Nautical Twilight 6:11 AM EST 5:44 PM EST
Astronomical Twilight 5:37 AM EST 6:19 PM EST
Moon 6:26 PM EST (1/17) 7:41 AM EST (1/17)
Length of Visible Light 10h 21m
Length of Day
9h 16m
Full, 98% of the Moon is Illuminated
Jan 17
Full
Jan 24
Last Quarter
Jan 30
New
Feb 6
First Quarter
Feb 14
Full

Hourly Weather History & Observations

Time (EST) Temp. Windchill Dew Point Humidity Pressure Visibility Wind Dir Wind Speed Gust Speed Precip Events Conditions
12:15 AM 27.5 °F - 24.6 °F 89% 29.88 in 7.0 mi Calm Calm - N/A   Overcast
12:35 AM 27.5 °F - 24.6 °F 89% 29.87 in 7.0 mi Calm Calm - N/A   Overcast
12:55 AM 27.5 °F - 24.8 °F 90% 29.87 in 5.0 mi Calm Calm - N/A Snow Light Snow
1:15 AM 27.5 °F - 25.2 °F 91% 29.86 in 4.0 mi Calm Calm - N/A Snow Light Snow
1:35 AM 27.5 °F - 25.2 °F 91% 29.88 in 3.0 mi Calm Calm - N/A Snow Light Snow
1:55 AM 27.5 °F - 25.2 °F 91% 29.87 in 2.5 mi Calm Calm - N/A   Overcast
2:15 AM 27.5 °F - 25.3 °F 92% 29.87 in 3.0 mi Calm Calm - N/A Snow Light Snow
2:35 AM 27.5 °F - 25.3 °F 92% 29.88 in 2.0 mi Calm Calm - N/A   Overcast
2:55 AM 27.5 °F - 25.3 °F 92% 29.87 in 4.0 mi Calm Calm - N/A   Overcast
3:15 AM 27.5 °F - 25.3 °F 92% 29.87 in 5.0 mi Calm Calm - N/A   Overcast
3:35 AM 27.7 °F - 25.3 °F 91% 29.86 in 5.0 mi Calm Calm - N/A   Overcast
3:55 AM 27.9 °F - 25.5 °F 91% 29.85 in 2.0 mi Calm Calm - N/A   Overcast
4:15 AM 27.5 °F - 25.3 °F 92% 29.86 in 2.0 mi Calm Calm - N/A   Overcast
4:35 AM 28.0 °F - 25.7 °F 91% 29.86 in 2.5 mi Calm Calm - N/A   Overcast
4:55 AM 27.9 °F - 25.7 °F 92% 29.86 in 2.0 mi Calm Calm - N/A   Overcast
5:15 AM 27.9 °F - 25.7 °F 92% 29.86 in 2.0 mi Calm Calm - N/A   Overcast
5:35 AM 27.9 °F - 25.7 °F 92% 29.87 in 2.5 mi Calm Calm - N/A   Overcast
5:55 AM 27.5 °F - 25.5 °F 92% 29.87 in 2.0 mi Calm Calm - N/A   Overcast
6:15 AM 27.7 °F - 25.7 °F 92% 29.87 in 2.5 mi Calm Calm - N/A   Overcast
6:35 AM 27.5 °F - 25.5 °F 92% 29.86 in 3.0 mi Calm Calm - N/A   Overcast
6:55 AM 27.0 °F - 24.8 °F 92% 29.87 in 3.0 mi Calm Calm - N/A   Overcast
7:15 AM 26.2 °F - 23.9 °F 91% 29.87 in 0.8 mi Calm Calm - N/A   Overcast
7:35 AM 26.6 °F - 24.6 °F 92% 29.88 in 0.5 mi Calm Calm - N/A Fog Light Freezing Fog
7:55 AM 27.1 °F - 24.8 °F 91% 29.88 in 0.2 mi Calm Calm - N/A Fog Light Freezing Fog
8:15 AM 27.5 °F - 25.5 °F 92% 29.88 in 0.5 mi Calm Calm - N/A Fog Light Freezing Fog
8:35 AM 27.5 °F 23.6 °F 25.5 °F 92% 29.90 in 0.5 mi WSW 3.5 mph - N/A Fog Light Freezing Fog
8:55 AM 27.7 °F - 25.5 °F 92% 29.89 in 1.5 mi Calm Calm - N/A   Overcast
9:15 AM 28.2 °F - 25.9 °F 91% 29.89 in 2.5 mi Calm Calm - N/A   Overcast
9:35 AM 28.4 °F 23.3 °F 26.4 °F 92% 29.89 in 2.0 mi SSE 4.6 mph - N/A   Overcast
9:55 AM 28.4 °F 24.6 °F 26.4 °F 92% 29.88 in 1.8 mi South 3.5 mph - N/A   Overcast
10:15 AM 28.9 °F - 26.6 °F 91% 29.86 in 2.5 mi Calm Calm - N/A   Overcast
10:35 AM 29.3 °F 23.2 °F 27.3 °F 92% 29.86 in 5.0 mi SSW 5.8 mph - N/A   Overcast
10:55 AM 30.2 °F 23.4 °F 27.3 °F 89% 29.87 in 7.0 mi SSW 6.9 mph - N/A   Overcast
11:15 AM 31.1 °F 26.4 °F 25.7 °F 80% 29.84 in 10.0 mi SSE 4.6 mph - N/A   Mostly Cloudy
11:35 AM 31.1 °F 25.4 °F 26.1 °F 82% 29.84 in 10.0 mi SSE 5.8 mph - N/A   Mostly Cloudy
11:55 AM 31.1 °F 26.4 °F 26.1 °F 82% 29.84 in 10.0 mi South 4.6 mph - N/A   Mostly Cloudy
12:15 PM 31.8 °F 27.3 °F 25.7 °F 78% 29.83 in 10.0 mi SSE 4.6 mph - N/A   Mostly Cloudy
12:35 PM 32.2 °F 27.7 °F 25.9 °F 78% 29.83 in 10.0 mi SSE 4.6 mph - N/A   Overcast
12:55 PM 32.7 °F 27.3 °F 24.8 °F 73% 29.83 in 10.0 mi SSE 5.8 mph - N/A   Scattered Clouds
1:15 PM 32.9 °F 24.7 °F 25.2 °F 73% 29.81 in 10.0 mi SSE 10.4 mph - N/A   Mostly Cloudy
1:35 PM 33.1 °F 27.7 °F 24.6 °F 71% 29.83 in 10.0 mi SSE 5.8 mph - N/A   Overcast
1:55 PM 33.4 °F 26.6 °F 23.5 °F 67% 29.82 in 10.0 mi South 8.1 mph - N/A   Mostly Cloudy
2:15 PM 33.4 °F 26.6 °F 23.4 °F 67% 29.82 in 10.0 mi South 8.1 mph - N/A   Scattered Clouds
2:35 PM 33.4 °F 26.6 °F 23.4 °F 67% 29.83 in 10.0 mi South 8.1 mph - N/A   Mostly Cloudy
2:55 PM 33.3 °F 25.7 °F 23.7 °F 68% 29.83 in 10.0 mi South 9.2 mph - N/A   Overcast
3:15 PM 33.8 °F 26.4 °F 23.2 °F 65% 29.84 in 10.0 mi South 9.2 mph - N/A   Overcast
3:35 PM 33.4 °F 29.1 °F 23.0 °F 66% 29.84 in 10.0 mi South 4.6 mph - N/A   Mostly Cloudy
3:55 PM 32.7 °F 27.3 °F 23.5 °F 69% 29.83 in 10.0 mi South 5.8 mph - N/A   Scattered Clouds
4:15 PM 32.9 °F 25.9 °F 23.5 °F 68% 29.84 in 10.0 mi South 8.1 mph - N/A   Scattered Clouds
4:35 PM 32.9 °F 28.5 °F 23.5 °F 68% 29.85 in 10.0 mi SSW 4.6 mph - N/A   Overcast
4:55 PM 32.0 °F 27.5 °F 23.0 °F 69% 29.85 in 10.0 mi SSW 4.6 mph - N/A   Mostly Cloudy
5:15 PM 31.5 °F 25.8 °F 22.8 °F 70% 29.86 in 10.0 mi South 5.8 mph - N/A   Scattered Clouds
5:35 PM 31.1 °F - 22.8 °F 71% 29.86 in 10.0 mi Calm Calm - N/A   Clear
5:55 PM 30.9 °F 25.2 °F 22.1 °F 70% 29.87 in 10.0 mi SSW 5.8 mph - N/A   Clear
6:15 PM 30.9 °F 26.2 °F 21.2 °F 67% 29.87 in 10.0 mi SSW 4.6 mph - N/A   Clear
6:35 PM 30.9 °F 23.5 °F 20.7 °F 66% 29.88 in 10.0 mi South 8.1 mph - N/A   Clear
6:55 PM 30.2 °F 23.4 °F 20.3 °F 67% 29.88 in 10.0 mi South 6.9 mph - N/A   Scattered Clouds
7:15 PM 29.5 °F 25.9 °F 20.3 °F 69% 29.89 in 10.0 mi SSW 3.5 mph - N/A   Scattered Clouds
7:35 PM 29.3 °F 23.2 °F 19.8 °F 68% 29.88 in 10.0 mi South 5.8 mph - N/A   Clear
7:55 PM 29.3 °F - 19.9 °F 68% 29.88 in 10.0 mi Calm Calm - N/A   Clear
8:15 PM 28.2 °F - 19.4 °F 70% 29.89 in 10.0 mi Calm Calm - N/A   Clear
8:35 PM 28.2 °F - 19.0 °F 68% 29.89 in 10.0 mi Calm Calm - N/A   Clear
8:55 PM 27.3 °F - 19.2 °F 72% 29.89 in 10.0 mi Calm Calm - N/A   Clear
9:15 PM 27.7 °F - 19.2 °F 71% 29.89 in 10.0 mi Calm Calm - N/A   Clear
9:35 PM 27.5 °F - 19.9 °F 73% 29.89 in 10.0 mi Calm Calm - N/A   Clear
9:55 PM 27.0 °F - 20.1 °F 75% 29.89 in 10.0 mi Calm Calm - N/A   Clear
10:15 PM 26.6 °F - 20.3 °F 77% 29.89 in 10.0 mi Calm Calm - N/A   Scattered Clouds
10:35 PM 27.3 °F - 21.2 °F 78% 29.88 in 10.0 mi Calm Calm - N/A   Scattered Clouds
10:55 PM 27.3 °F - 21.4 °F 78% 29.88 in 10.0 mi Calm Calm - N/A   Scattered Clouds
11:15 PM 24.1 °F - 19.8 °F 84% 29.87 in 10.0 mi Calm Calm - N/A   Clear
11:35 PM 24.3 °F - 20.3 °F 85% 29.87 in 10.0 mi Calm Calm - N/A   Clear
11:55 PM 23.7 °F - 20.3 °F 87% 29.86 in 10.0 mi Calm Calm - N/A   Clear